Regional Weather Roundup
Issued by NWS

Home | Current Version | Previous Version | Graphics & Text | Print | Product List | Glossary On
Versions: 1 2 3 4 5 6 7 8 9 10 11 12 13 14 15 16 17 18 19 20 21 22 23 24 25 26 27 28 29 30 31 32 33 34 35 36 37 38 39 40 41 42 43 44 45 46 47 48 49 50
000
ASUS43 KTOP 300908
RWRKS

WEATHER ROUNDUP FOR KANSAS
NATIONAL WEATHER SERVICE GOODLAND KS
400 AM CDT THU MAR 30 2017

NOTE:  "FAIR" INDICATES FEW OR NO CLOUDS BELOW 12,000 FEET WITH NO
SIGNIFICANT WEATHER AND/OR OBSTRUCTIONS TO VISIBILITY.

KSZ001>006-013>018-027>032-041>047-301000-
NORTHWEST KANSAS

CITY           SKY/WX    TMP DP  RH WIND       PRES   REMARKS
GOODLAND       CLOUDY    35  34  96 N10       29.84F WCI  27
HAYS             N/A     40  37  89 N25G33    29.75S WCI  29
HILL CITY      CLOUDY    41  38  89 N14       29.80F
RUSSELL        CLOUDY    39  37  92 NW24G35   29.71F WCI  28
$$

KSZ061>065-074>080-084>089-301000-
SOUTHWEST KANSAS

CITY           SKY/WX    TMP DP  RH WIND       PRES   REMARKS
DODGE CITY     CLOUDY    41  39  93 NW18G26   29.77F
ELKHART          N/A     36  30  79 W7          N/A
GARDEN CITY    CLOUDY    39  37  92 NW15      29.82F WCI  31
GREAT BEND     CLOUDY    40  37  89 NW26G35   29.71F WCI  29
LIBERAL        CLEAR     39  34  81 NW13      29.85F WCI  32
PRATT          CLOUDY    37  35  90 NW23G30   29.71F WCI  26
$$

KSZ066>073-081>083-090>101-301000-
SOUTHEAST KANSAS

CITY           SKY/WX    TMP DP  RH WIND       PRES   REMARKS
CHANUTE        LGT RAIN  47  45  93 S15       29.57F FOG
COFFEYVILLE    CLOUDY    48  43  82 SW12      29.62F
MEDICINE LODGE   N/A     42  36  79 NW22G33   29.71S
NEWTON         CLOUDY    41  40  96 NW21G26   29.60S
PARSONS        LGT RAIN  47  44  90 SW12      29.61F
WICHITA INTL   LGT RAIN  44  44 100 NW20G26   29.63F FOG
WICHITA JABRA  CLOUDY    42  41  96 NW20G25   29.61F
WICHITA MCCONL LGT RAIN  43  40  90 NW17      29.62R
WINFIELD       CLOUDY    44  42  93 NW15      29.64F
$$

KSZ007>012-019>026-033>040-048>060-102>105-301000-
NORTHEAST KANSAS

CITY           SKY/WX    TMP DP  RH WIND       PRES   REMARKS
CONCORDIA      HVY RAIN  40  40 100 N18G29    29.66S FOG     WCI  31
EMPORIA        CLOUDY    45  45 100 W10       29.53S FOG
LAWRENCE       CLOUDY    50  48  93 SE8       29.56F
MANHATTAN      CLOUDY    46  44  93 N12G21    29.56S
MARYSVILLE     LGT RAIN  43  43 100 N18       29.60F
OLATHE IND     PTCLDY    47  45  93 S8        29.56F
OLATHE EXE     MOCLDY    47  46  97 MISG      29.56F
SALINA         LGT RAIN  43  40  89 NW24G35   29.64S
TOPEKA BILLARD CLOUDY    50  48  93 SE5       29.54F
TOPEKA FORBES  CLOUDY    50  48  93 SE8       29.54F
$$



USA.gov is the U.S. government's official web portal to all federal, state and local government web resources and services.